Home > Weather > Charleston > Past weeks

Flag for USA Weather for the Past 2 Weeks in Charleston, South Carolina, USA

Now
58 °F

Clear.


Feels Like: 56 °F
Forecast: 59 / 74 °F
Wind: 9 mph from West

Location: Charleston Air Force Base Reporting Station

Current Time: May 5, 2016 at 5:31:07 AM

Latest Report: May 5, 2016 at 4:56 AM


Visibility: 10 mi

Pressure: 29.58 "Hg

Humidity: 67%

Dew Point: 47 °F

Location of CharlestonLocation

Historic Weather in Charleston — Graph

°F

Charleston Temperature Yesterday

Maximum temperature yesterday: 81 °F (at 2:56 PM)
Minimum temperature yesterday: 64 °F (at 11:56 PM)
Average temperature yesterday: 72 °F

High & Low Weather Summary for the Past Weeks

 TemperatureHumidityPressure
High88 °F (Apr 29, 1:56 PM)97% (May 2, 5:56 AM)30.18 "Hg (May 2, 5:56 AM)
Low56 °F (Apr 20, 6:56 AM)26% (May 4, 4:56 PM)29.58 "Hg (May 5, 3:56 AM)
Average73 °F70%29.97 "Hg
* Reported Apr 20 3:56 AM — May 5 3:56 AM, Charleston, Weather by CustomWeather, © 2016

Note: Actual official high and low records may vary slightly from our data, if they occured in-between our weather recording intervals... More about our weather records

Advertising

Charleston Weather History for the Previous 24 Hours

Scroll right to see more
 ConditionsComfort  
Time TempWeatherWind HumidityBarometerVisibility
3:56 AM
Thu, May 5
59 °FClear.8 mph67%29.58 "Hg10 mi
2:56 AM60 °FClear.7 mph65%29.59 "Hg10 mi
1:56 AM61 °FClear.6 mph62%29.63 "Hg10 mi
12:56 AM63 °FClear.7 mph58%29.64 "Hg10 mi
11:56 PM
Wed, May 4
64 °FClear.8 mph56%29.63 "Hg10 mi
10:56 PM65 °FPassing clouds.8 mph54%29.65 "Hg10 mi
9:56 PM68 °FClear.7 mph45%29.65 "Hg10 mi
8:56 PM70 °FSunny.7 mph42%29.63 "Hg10 mi
7:56 PM74 °FPassing clouds.9 mph37%29.62 "Hg10 mi
6:56 PM77 °FPassing clouds.12 mph29%29.61 "Hg10 mi
5:56 PM79 °FPassing clouds.14 mph30%29.61 "Hg10 mi
4:56 PM81 °FPartly sunny.12 mph26%29.61 "Hg10 mi
3:56 PM80 °FScattered clouds.10 mph32%29.62 "Hg10 mi
2:56 PM81 °FScattered clouds.12 mph37%29.64 "Hg10 mi
1:56 PM79 °FPassing clouds.10 mph39%29.65 "Hg10 mi
12:56 PM79 °FPassing clouds.9 mph41%29.69 "Hg10 mi
11:56 AM77 °FPassing clouds.9 mph44%29.71 "Hg10 mi
10:56 AM76 °FPassing clouds.12 mph52%29.72 "Hg10 mi
9:56 AM72 °FPassing clouds.10 mph71%29.71 "Hg10 mi
8:56 AM70 °FPartly sunny.9 mph81%29.72 "Hg10 mi
7:56 AM68 °FPartly sunny.9 mph87%29.73 "Hg10 mi
6:56 AM68 °FPassing clouds.7 mph87%29.72 "Hg10 mi
5:56 AM67 °FPassing clouds.6 mph93%29.71 "Hg10 mi
Weather by CustomWeather, © 2016

See weather overviewHow to use our weather pages